Weather History for Martinsburg, WV

Change the Weather History Date:

Sunday, May 19, 2013

  Actual Average Record
Temperature  
Mean Temperature 65 °F 62 °F  
Max Temperature 71 °F 73 °F 96 °F (1996)
Min Temperature 58 °F 50 °F 35 °F (2009)
Degree Days  
Heating Degree Days 0 5  
Month to date heating degree days 126 126  
Since 1 July heating degree days 4867 5183  
Cooling Degree Days 0 2  
Month to date cooling degree days 14 22  
Year to date cooling degree days 45 31  
Growing Degree Days 14 (Base 50)    
Moisture  
Dew Point 59 °F    
Average Humidity 87    
Maximum Humidity 100    
Minimum Humidity 73    
Precipitation  
Precipitation T in 0.12 in 1.13 in (1959)
Month to date precipitation 1.44 2.51  
Year to date precipitation 10.55 14.15  
Sea Level Pressure  
Sea Level Pressure 30.16 in    
Wind  
Wind Speed 2 mph (East)    
Max Wind Speed 10 mph    
Max Gust Speed 15 mph    
Visibility 6 miles    
Events Fog , Rain    
T = Trace of Precipitation, MM = Missing Value Source: NWS Daily Summary

Daily Weather History Graph

Daily Weather History Graph

Search for Another Location

Airport:

Trip Planner

Search our weather history database for the weather conditions in past years. The results will help you decide how hot, cold, wet, or windy it might be!

Date:

Astronomy

May. 19, 2013 Rise Set
Actual Time 5:54 AM EDT 8:22 PM EDT
Civil Twilight 5:23 AM EDT 8:53 PM EDT
Nautical Twilight 4:45 AM EDT 9:31 PM EDT
Astronomical Twilight 4:03 AM EDT 10:14 PM EDT
Moon 2:26 PM EDT (5/19) 2:15 AM EDT (5/19)
Length of Visible Light 15h 29m
Length of Day
14h 28m
Waxing Gibbous, 65% of the Moon is Illuminated
May 19
Waxing Gibbous
May 25
Full
May 31
Last Quarter
Jun 8
New
Jun 16
First Quarter

Hourly Weather History & Observations

Time (EDT) Temp. Dew Point Humidity Pressure Visibility Wind Dir Wind Speed Gust Speed Precip Events Conditions
12:53 AM 59.0 °F 55.9 °F 90% 30.21 in 10.0 mi Calm Calm - N/A   Overcast
1:53 AM 59.0 °F 55.9 °F 90% 30.20 in 8.0 mi East 4.6 mph - N/A   Overcast
2:53 AM 57.9 °F 55.9 °F 93% 30.19 in 5.0 mi East 4.6 mph - N/A   Overcast
3:53 AM 57.9 °F 55.9 °F 93% 30.17 in 7.0 mi Calm Calm - N/A   Overcast
4:53 AM 57.9 °F 55.9 °F 93% 30.17 in 5.0 mi ENE 3.5 mph - N/A   Overcast
6:13 AM 57.2 °F 57.2 °F 100% 30.17 in 2.0 mi NNE 3.5 mph - N/A   Overcast
6:23 AM 57.2 °F 57.2 °F 100% 30.17 in 1.0 mi NNE 4.6 mph - N/A   Overcast
6:32 AM 57.2 °F 57.2 °F 100% 30.18 in 0.8 mi NE 3.5 mph - N/A   Overcast
6:53 AM 57.9 °F 57.0 °F 97% 30.18 in 0.5 mi Calm Calm - N/A Fog Fog
7:22 AM 57.2 °F 57.2 °F 100% 30.19 in 0.2 mi Calm Calm - N/A Fog Fog
8:07 AM 59.0 °F 57.2 °F 94% 30.20 in 1.2 mi ESE 3.5 mph - N/A   Overcast
8:23 AM 59.0 °F 57.2 °F 94% 30.21 in 3.0 mi Calm Calm - N/A   Overcast
8:53 AM 59.0 °F 57.0 °F 93% 30.21 in 2.0 mi Calm Calm - N/A   Overcast
9:20 AM 59.0 °F 57.2 °F 94% 30.21 in 1.5 mi NNE 5.8 mph - N/A   Overcast
9:46 AM 59.0 °F 57.2 °F 94% 30.21 in 2.0 mi NNE 4.6 mph - N/A   Overcast
9:53 AM 60.1 °F 57.9 °F 93% 30.21 in 2.0 mi NE 3.5 mph - N/A   Overcast
10:07 AM 60.8 °F 57.2 °F 88% 30.21 in 4.0 mi NE 3.5 mph - N/A   Overcast
10:53 AM 61.0 °F 57.9 °F 90% 30.20 in 5.0 mi NNE 4.6 mph - N/A   Overcast
11:33 AM 62.6 °F 57.2 °F 82% 30.20 in 7.0 mi Calm Calm - N/A   Overcast
11:53 AM 63.0 °F 59.0 °F 87% 30.19 in 10.0 mi Calm Calm - N/A   Overcast
12:53 PM 63.0 °F 60.1 °F 90% 30.18 in 5.0 mi ESE 3.5 mph - 0.00 in Rain Light Rain
1:53 PM 64.9 °F 61.0 °F 87% 30.15 in 10.0 mi Calm Calm - 0.00 in   Overcast
2:41 PM 66.2 °F 60.8 °F 83% 30.14 in 10.0 mi Variable 3.5 mph - N/A   Overcast
3:24 PM 69.8 °F 62.6 °F 78% 30.12 in 10.0 mi SE 8.1 mph - N/A   Overcast
3:53 PM 69.1 °F 62.1 °F 78% 30.11 in 10.0 mi SE 6.9 mph - N/A   Overcast
4:53 PM 70.0 °F 62.1 °F 76% 30.10 in 10.0 mi SE 5.8 mph - N/A   Overcast
5:53 PM 70.0 °F 62.1 °F 76% 30.09 in 10.0 mi SSE 5.8 mph - N/A   Overcast
6:06 PM 69.8 °F 62.6 °F 78% 30.10 in 10.0 mi SSE 4.6 mph - N/A   Overcast
6:53 PM 70.0 °F 61.0 °F 73% 30.09 in 10.0 mi South 5.8 mph - N/A   Overcast
7:53 PM 69.1 °F 62.1 °F 78% 30.09 in 10.0 mi SSE 3.5 mph - N/A   Overcast
8:53 PM 69.1 °F 62.1 °F 78% 30.11 in 10.0 mi Calm Calm - N/A   Overcast
9:53 PM 66.0 °F 63.0 °F 90% 30.12 in 10.0 mi Calm Calm - N/A   Overcast
10:53 PM 66.9 °F 63.0 °F 87% 30.13 in 10.0 mi Calm Calm - N/A   Overcast
11:53 PM 66.9 °F 63.0 °F 87% 30.11 in 10.0 mi Calm Calm - N/A   Overcast